TWY511 SPZO-SCIP

Flight info

Callsign TWY511
Flight time N/A
Altitude 38000
Route TILPA UV11 AND UT333 SCO DCT 18S084W 22S094W/N0459F400 24S100W DCT EROPI EROPI1C
Aircraft B737/M-SDE2E3FGHIRWXY/LB1

Departure

Time N/A
Airport Alejandro Velasco Astete International Airport (SPZO)

Arrival

Time 2026-04-12 03:45
Airport Mataveri International Airport (SCIP)
Time Latitude Longitude Altitude Speed Heading
2026-04-12 02:59 -25.75982 -104.20193 38220 ft 481 kts 239°
2026-04-12 02:59 -25.77346 -104.23614 38208 ft 481 kts 239°
2026-04-12 02:59 -25.80055 -104.30416 38233 ft 482 kts 239°
2026-04-12 03:00 -25.82769 -104.37240 38220 ft 483 kts 239°
2026-04-12 03:00 -25.85459 -104.44023 38228 ft 483 kts 239°
2026-04-12 03:01 -25.88163 -104.50849 38220 ft 483 kts 239°
2026-04-12 03:01 -25.90862 -104.57669 38222 ft 482 kts 239°
2026-04-12 03:02 -25.93557 -104.64494 38225 ft 482 kts 239°
2026-04-12 03:02 -25.96247 -104.71316 38227 ft 482 kts 239°
2026-04-12 03:03 -25.98934 -104.78141 38223 ft 482 kts 239°
2026-04-12 03:03 -26.01617 -104.84968 38223 ft 482 kts 239°
2026-04-12 03:04 -26.04297 -104.91799 38231 ft 482 kts 239°
2026-04-12 03:04 -26.06974 -104.98634 38228 ft 482 kts 239°
2026-04-12 03:05 -26.09649 -105.05475 38226 ft 482 kts 239°
2026-04-12 03:05 -26.12319 -105.12315 38220 ft 482 kts 239°
2026-04-12 03:06 -26.14971 -105.19119 38229 ft 482 kts 239°
2026-04-12 03:06 -26.17632 -105.25959 38223 ft 482 kts 239°
2026-04-12 03:07 -26.20296 -105.32817 38218 ft 482 kts 240°
2026-04-12 03:07 -26.22954 -105.39669 38230 ft 482 kts 240°
2026-04-12 03:08 -26.25610 -105.46530 38227 ft 483 kts 240°
2026-04-12 03:08 -26.28269 -105.53409 38227 ft 483 kts 240°
2026-04-12 03:09 -26.30928 -105.60301 38225 ft 483 kts 240°
2026-04-12 03:09 -26.33557 -105.67128 38217 ft 482 kts 240°
2026-04-12 03:10 -26.36198 -105.73997 38228 ft 482 kts 240°
2026-04-12 03:10 -26.38834 -105.80865 38228 ft 481 kts 240°
2026-04-12 03:11 -26.41468 -105.87736 38229 ft 481 kts 240°
2026-04-12 03:11 -26.44096 -105.94606 38229 ft 481 kts 240°
2026-04-12 03:12 -26.46283 -106.00330 38221 ft 481 kts 240°
2026-04-12 03:12 -26.48907 -106.07211 38229 ft 481 kts 240°
2026-04-12 03:13 -26.51528 -106.14094 38228 ft 482 kts 240°
2026-04-12 03:13 -26.54147 -106.20985 38223 ft 481 kts 240°
2026-04-12 03:14 -26.56754 -106.27859 38227 ft 480 kts 240°
2026-04-12 03:14 -26.59357 -106.34733 38228 ft 480 kts 240°
2026-04-12 03:15 -26.61953 -106.41598 38229 ft 479 kts 240°
2026-04-12 03:15 -26.64530 -106.48422 38230 ft 479 kts 240°
2026-04-12 03:16 -26.67120 -106.55297 38230 ft 479 kts 240°
2026-04-12 03:16 -26.69709 -106.62178 38229 ft 480 kts 240°
2026-04-12 03:17 -26.72295 -106.69064 38229 ft 480 kts 240°
2026-04-12 03:17 -26.74873 -106.75944 38229 ft 480 kts 240°
2026-04-12 03:18 -26.77452 -106.82835 38231 ft 480 kts 240°
2026-04-12 03:18 -26.80010 -106.89682 38223 ft 480 kts 240°
2026-04-12 03:19 -26.82580 -106.96576 38225 ft 479 kts 240°
2026-04-12 03:19 -26.85146 -107.03469 38223 ft 479 kts 240°
2026-04-12 03:20 -26.87710 -107.10368 38223 ft 479 kts 240°
2026-04-12 03:20 -26.90269 -107.17267 38237 ft 480 kts 240°
2026-04-12 03:21 -26.92814 -107.24139 38228 ft 480 kts 240°
2026-04-12 03:21 -26.95374 -107.31065 38232 ft 480 kts 240°
2026-04-12 03:22 -26.97926 -107.37981 38230 ft 480 kts 240°
2026-04-12 03:22 -27.00470 -107.44891 38229 ft 479 kts 240°
2026-04-12 03:23 -27.03009 -107.51795 38223 ft 478 kts 240°
2026-04-12 03:23 -27.05542 -107.58696 38235 ft 478 kts 240°
2026-04-12 03:24 -27.08073 -107.65607 38236 ft 478 kts 241°
2026-04-12 03:24 -27.10597 -107.72507 38232 ft 478 kts 241°
2026-04-12 03:25 -27.13118 -107.79412 38228 ft 478 kts 241°
2026-04-12 03:25 -27.15620 -107.86280 38232 ft 478 kts 241°
2026-04-12 03:26 -27.18138 -107.93202 38234 ft 479 kts 241°
2026-04-12 03:26 -27.20646 -108.00124 38228 ft 475 kts 241°
2026-04-12 03:27 -27.21882 -108.03547 37678 ft 472 kts 241°
2026-04-12 03:27 -27.23122 -108.06966 36950 ft 471 kts 241°
2026-04-12 03:27 -27.24359 -108.10373 36234 ft 470 kts 242°
2026-04-12 03:27 -27.25588 -108.13763 35585 ft 467 kts 242°
2026-04-12 03:28 -27.26806 -108.17135 34945 ft 464 kts 242°
2026-04-12 03:28 -27.28016 -108.20486 34322 ft 461 kts 243°
2026-04-12 03:28 -27.29220 -108.23826 33624 ft 458 kts 243°
2026-04-12 03:28 -27.30363 -108.27110 32931 ft 458 kts 248°
2026-04-12 03:29 -27.30886 -108.30672 32257 ft 470 kts 265°
2026-04-12 03:29 -27.30488 -108.34374 31625 ft 483 kts 279°
2026-04-12 03:29 -27.29723 -108.38071 31003 ft 489 kts 281°
2026-04-12 03:29 -27.28898 -108.41793 30371 ft 491 kts 281°
2026-04-12 03:30 -27.28067 -108.45510 29636 ft 490 kts 281°
2026-04-12 03:30 -27.27247 -108.49223 28925 ft 486 kts 281°
2026-04-12 03:30 -27.26454 -108.52892 28224 ft 479 kts 281°
2026-04-12 03:30 -27.25687 -108.56502 27539 ft 471 kts 280°
2026-04-12 03:31 -27.24938 -108.60069 26874 ft 464 kts 280°
2026-04-12 03:31 -27.24206 -108.63568 26227 ft 457 kts 280°
2026-04-12 03:31 -27.23484 -108.67019 25595 ft 451 kts 280°
2026-04-12 03:31 -27.22771 -108.70425 24973 ft 445 kts 281°
2026-04-12 03:32 -27.22074 -108.73743 24385 ft 440 kts 281°
2026-04-12 03:32 -27.21375 -108.77069 23787 ft 435 kts 281°
2026-04-12 03:32 -27.20682 -108.80359 23079 ft 430 kts 281°
2026-04-12 03:32 -27.19996 -108.83608 22392 ft 425 kts 281°
2026-04-12 03:33 -27.19317 -108.86821 21727 ft 420 kts 281°
2026-04-12 03:33 -27.18646 -108.89993 21067 ft 416 kts 281°
2026-04-12 03:33 -27.17979 -108.93139 20424 ft 411 kts 281°
2026-04-12 03:33 -27.17321 -108.96242 19797 ft 407 kts 281°
2026-04-12 03:34 -27.16668 -108.99316 19179 ft 402 kts 282°
2026-04-12 03:34 -27.16022 -109.02357 18577 ft 398 kts 282°
2026-04-12 03:34 -27.15382 -109.05366 17886 ft 394 kts 282°
2026-04-12 03:34 -27.14746 -109.08351 17207 ft 391 kts 282°
2026-04-12 03:35 -27.14124 -109.11270 16545 ft 387 kts 282°
2026-04-12 03:35 -27.13499 -109.14197 15888 ft 383 kts 282°
2026-04-12 03:35 -27.12860 -109.17088 15248 ft 380 kts 286°
2026-04-12 03:35 -27.11844 -109.19816 14625 ft 378 kts 296°
2026-04-12 03:36 -27.10646 -109.22411 13998 ft 368 kts 298°
2026-04-12 03:36 -27.09456 -109.24898 13296 ft 355 kts 298°
2026-04-12 03:36 -27.08309 -109.27307 12617 ft 344 kts 298°
2026-04-12 03:36 -27.07210 -109.29652 11951 ft 335 kts 297°
2026-04-12 03:37 -27.06151 -109.31941 11320 ft 326 kts 297°
2026-04-12 03:37 -27.05125 -109.34172 10723 ft 317 kts 297°
2026-04-12 03:37 -27.04127 -109.36353 10163 ft 310 kts 297°
2026-04-12 03:37 -27.03164 -109.38464 9697 ft 298 kts 297°
2026-04-12 03:38 -27.02231 -109.40512 9134 ft 292 kts 297°
2026-04-12 03:38 -27.01331 -109.42486 8642 ft 284 kts 297°
2026-04-12 03:38 -27.00452 -109.44411 8190 ft 270 kts 297°
2026-04-12 03:38 -26.99604 -109.46269 7707 ft 266 kts 297°
2026-04-12 03:39 -26.98770 -109.48092 7196 ft 259 kts 297°
2026-04-12 03:39 -26.97958 -109.49880 6672 ft 255 kts 294°
2026-04-12 03:39 -26.97613 -109.51799 6095 ft 251 kts 264°
2026-04-12 03:39 -26.98170 -109.53618 5564 ft 248 kts 234°
2026-04-12 03:40 -26.99393 -109.54932 5067 ft 242 kts 209°
2026-04-12 03:40 -27.00892 -109.55735 4548 ft 237 kts 200°
2026-04-12 03:40 -27.02415 -109.56423 4033 ft 235 kts 200°
2026-04-12 03:40 -27.03933 -109.57109 3523 ft 234 kts 200°
2026-04-12 03:41 -27.05434 -109.57798 3031 ft 232 kts 201°
2026-04-12 03:41 -27.06919 -109.58486 2611 ft 227 kts 201°
2026-04-12 03:41 -27.08386 -109.58718 2493 ft 208 kts 162°
2026-04-12 03:41 -27.09462 -109.57768 2505 ft 201 kts 116°
2026-04-12 03:42 -27.10038 -109.56332 2406 ft 207 kts 114°
2026-04-12 03:42 -27.10636 -109.54905 2133 ft 192 kts 114°
2026-04-12 03:42 -27.11171 -109.53630 1823 ft 173 kts 115°
2026-04-12 03:42 -27.11688 -109.52485 1577 ft 155 kts 116°
2026-04-12 03:43 -27.12165 -109.51468 1402 ft 141 kts 117°
2026-04-12 03:43 -27.12611 -109.50522 1259 ft 133 kts 116°
2026-04-12 03:43 -27.13020 -109.49655 1122 ft 120 kts 116°
2026-04-12 03:43 -27.13411 -109.48825 1013 ft 127 kts 117°
2026-04-12 03:44 -27.13847 -109.47901 866 ft 145 kts 117°
2026-04-12 03:44 -27.14307 -109.46928 703 ft 135 kts 117°
2026-04-12 03:44 -27.14733 -109.46024 561 ft 127 kts 119°
2026-04-12 03:44 -27.15140 -109.45119 426 ft 133 kts 117°
2026-04-12 03:45 -27.15567 -109.44187 283 ft 134 kts 117°
2026-04-12 03:45 -27.15982 -109.43272 159 ft 126 kts 118°
2026-04-12 03:45 -27.16328 -109.42521 155 ft 89 kts 116°
2026-04-12 03:45 -27.16540 -109.42053 157 ft 34 kts 117°
2026-04-12 03:46 -27.16578 -109.41921 158 ft 10 kts 146°
2026-04-12 03:46 -27.16594 -109.41951 160 ft 6 kts 302°
2026-04-12 03:46 -27.16539 -109.42055 157 ft 24 kts 296°
2026-04-12 03:46 -27.16445 -109.42262 158 ft 32 kts 297°
2026-04-12 03:47 -27.16344 -109.42481 155 ft 31 kts 297°
2026-04-12 03:47 -27.16251 -109.42685 155 ft 28 kts 296°
2026-04-12 03:47 -27.16179 -109.42841 156 ft 16 kts 297°
2026-04-12 03:47 -27.16125 -109.42879 157 ft 8 kts 12°
2026-04-12 03:48 -27.16072 -109.42853 152 ft 8 kts 26°
2026-04-12 03:48 -27.16028 -109.42835 149 ft 5 kts
2026-04-12 03:48 -27.16009 -109.42847 148 ft 2 kts 312°
2026-04-12 03:48 -27.16001 -109.42863 148 ft 2 kts 296°
2026-04-12 03:49 -27.15999 -109.42868 148 ft 0 kts 296°